Miscellaneous Local Product
Issued by NWS Hastings, NE

Home | Current Version | Previous Version | Text Only | Print | Product List | Glossary On
Versions: 1 2 3 4 5 6 7 8 9 10 11 12 13 14 15 16 17 18 19 20 21 22 23 24 25 26 27 28 29 30 31 32 33 34 35 36 37 38 39 40 41 42 43 44 45 46 47 48 49 50
000
AXUS43 KGID 280302
MISGRI

GID CWA HOURLY WEATHER ROUNDUP
NATIONAL WEATHER SERVICE HASTINGS NE
1000 PM CDT FRI MAY 27 2016

NOTE: "FAIR" INDICATES FEW OR NO CLOUDS BELOW 12,000 FEET WITH NO
SIGNIFICANT WEATHER AND/OR OBSTRUCTIONS TO VISIBILITY.

...SOUTH CENTRAL NEBRASKA...

CITY           SKY/WX    TMP DP  RH WIND       PRES   REMARKS
GRAND ISLAND   LGT RAIN  59  57  93 E26       29.72F
HASTINGS       LGT RAIN  58  53  84 E23G39    29.67F
KEARNEY        MOCLDY    61  55  82 NE8       29.72R
ORD            TSTM      58  53  84 E13       29.77R
YORK           LGT RAIN  59  57  94 S6        29.79R
AURORA         RAIN      61  60  96 E7        29.79R
LEXINGTON      CLOUDY    60  52  76 N16       29.74S
HOLDREGE       CLOUDY    63  59  88 CALM      29.71S
HEBRON         CLOUDY    57  57  98 NE6       29.74R

...NEBRASKA PANHANDLE...

CITY           SKY/WX    TMP DP  RH WIND       PRES   REMARKS
CHADRON        MOCLDY    51  46  83 W3        29.85R
ALLIANCE       PTCLDY    51  46  83 CALM      29.86R
SCOTTSBLUFF    CLOUDY    53  45  74 NW3       29.88R
SIDNEY         CLEAR     49  46  90 N5        29.89R

...WESTERN AND NORTH CENTRAL NEBRASKA...

CITY           SKY/WX    TMP DP  RH WIND       PRES   REMARKS
VALENTINE      MOCLDY    59  49  69 NE3       29.83R
AINSWORTH      CLOUDY    58  51  78 N7        29.80S
ONEILL         CLOUDY    64  59  85 N7        29.76R
BROKEN BOW     CLOUDY    62  57  83 NW8       29.74R
IMPERIAL       PTCLDY    52  48  86 NW5       29.82R
NORTH PLATTE   CLOUDY    56  52  86 CALM      29.80R
MCCOOK         LGT RAIN  55  50  83 N12       29.77S

...EASTERN NEBRASKA...

CITY           SKY/WX    TMP DP  RH WIND       PRES   REMARKS
NORFOLK        RAIN      59  56  89 W9        29.76R FOG
SO SIOUX CITY  CLOUDY    73  59  61 CALM      29.71R
TEKAMAH        CLOUDY    71  61  70 SE10      29.71R
COLUMBUS       MOCLDY    59  52  77 W12       29.78R THUNDER
ALBION         LGT RAIN  60  53  76 E7        29.77R
OMAHA EPPLEY   CLOUDY    72  62  71 SE12      29.71R
OFFUTT AFB     LGT RAIN  71  64  81 SE14      29.72R
MILLARD        CLOUDY    71  64  79 SE8       29.71R
LINCOLN        HVY RAIN  60  57  89 W13       29.76R FOG
NEBRASKA CITY  RAIN      61  61 100 W14G20    29.77R
BEATRICE       LGT RAIN  59  58  96 CALM      29.76R
FALLS CITY     LGT RAIN  62  58  86 W3        29.76R

...NORTHERN KANSAS...

CITY           SKY/WX    TMP DP  RH WIND       PRES   REMARKS
GOODLAND       MOCLDY    50  48  93 N5        29.82R
HILL CITY      CLOUDY    62  59  90 NW10      29.72R
NORTON         CLOUDY    59  54  82 W12       29.73R
PHILLIPSBURG   PTCLDY    63  63 100 NW5       29.71R
SMITH CENTER   CLEAR     59  55  88 SE8       29.71R
BELOIT         CLOUDY    59  55  88 NE8       29.69R
HAYS           CLOUDY    27 N/A N/A N9        29.70F WCI  17
RUSSELL        TSTM      57  53  86 NW5       29.69S FOG
CONCORDIA      CLOUDY    60  55  83 CALM      29.68S
SALINA         CLOUDY    63  54  72 E6        29.67R
TOPEKA         CLOUDY    62  58  86 VRB5      29.74R



USA.gov is the U.S. government's official web portal to all federal, state and local government web resources and services.